Weather observations for the past three days for
Coeur d'Alene Airport - Pappy Boyington Field
Imperial (Metric)
Date Time (pdt) Wind (mph) Vis. (mi.) Weather Sky Cond. Temperature (ºF) Relative Humidity Wind Chill (°F) Heat Index (°F) Pressure Precipitation (in)
Air Dwpt 6 hour altimeter (in) sea level (mb) 1 hr 3 hr 6 hr
Max. Min.
08 21:56 S 7 10.00 Fair CLR 57.9 37 46% 29.97 1016.0
08 20:56 S 8 10.00 Fair CLR 60.1 36 41% 29.96 1015.7
08 19:56 S 8 10.00 Fair CLR 63 36 37% 29.96 1015.4
08 18:56 S 8 10.00 Fair CLR 64.9 36 34% 29.96 1015.5
08 17:56 S 10 10.00 Fair CLR 66 37 34% 29.96 1015.6
08 16:56 SW 16 G 20 10.00 A Few Clouds FEW070 68 37 69.1 63 32% 29.96 1015.6
08 15:56 S 8 10.00 Fair CLR 66.9 42.1 41% 29.97 1015.9
08 14:56 S 10 10.00 Fair CLR 66 42.1 42% 29.97 1016.1
08 13:56 S 14 10.00 Fair CLR 64.9 39.9 40% 29.98 1016.3
08 12:56 S 12 10.00 Fair CLR 64 39 40% 29.98 1016.3
08 11:56 S 15 10.00 Fair CLR 64 33.1 32% 29.98 1016.3
08 10:56 S 10 10.00 Fair CLR 63 37 63 48.9 38% 29.99 1016.3
08 09:56 S 8 10.00 Fair CLR 62.1 34 35% 29.99 1016.5
08 08:56 Vrbl 3 10.00 Fair CLR 60.1 37 42% 29.99 1016.4
08 07:56 S 9 10.00 Fair CLR 55.9 43 62% 29.99 1016.4
08 06:56 S 9 8.00 Fair CLR 52 45 77% 29.98 1016.2
08 05:56 SE 9 10.00 Fair CLR 50 45 83% 47 29.96 1015.6
08 04:56 SE 3 10.00 Fair CLR 48.9 44.1 60.1 48.9 83% 29.96 1015.6
08 03:56 Calm 10.00 Fair CLR 50 44.1 80% 29.96 1015.4
08 02:56 SE 5 10.00 Fair CLR 51.1 45 80% 29.95 1015.1
08 01:56 SE 7 10.00 Fair CLR 55 45 69% 29.95 1015.1
08 00:56 S 6 10.00 Fair CLR 54 45 72% 29.95 1015.2
07 23:56 S 7 10.00 Fair CLR 57.9 45 62% 29.94 1014.8
07 22:56 S 8 10.00 Fair CLR 60.1 45 72 55.9 58% 29.94 1014.9
07 21:56 Calm 10.00 Fair CLR 59 45 60% 29.95 1015.2
07 20:56 S 6 10.00 Fair CLR 64.9 45 49% 29.94 1014.7
07 19:56 SW 7 10.00 Fair CLR 64.9 45 49% 29.93 1014.3
07 18:56 SW 7 10.00 Fair CLR 70 46.9 44% 29.92 1014.0
07 17:56 W 10 10.00 Fair CLR 71.1 44.1 38% 29.93 1014.4
07 16:56 SW 6 10.00 Fair CLR 71.1 46 72 62.1 41% 29.94 1014.8
07 15:56 W 10 10.00 Fair CLR 71.1 46 41% 29.95 1015.0
07 14:56 W 12 10.00 Fair CLR 72 45 38% 29.96 1015.3
07 13:56 W 10 10.00 Fair CLR 70 46 42% 29.98 1015.9
07 12:56 Calm 10.00 Fair CLR 68 44.1 42% 29.99 1016.1
07 11:56 W 8 10.00 A Few Clouds FEW042 66 46 49% 29.99 1016.2
07 10:56 S 8 10.00 Fair CLR 62.1 45 62.1 46.9 54% 30 1016.5
07 09:56 S 12 10.00 Fair CLR 59 44.1 58% 30 1016.7
07 08:56 SE 10 10.00 Fair CLR 57 43 60% 30 1016.6
07 07:56 S 8 10.00 Fair CLR 55 43 64% 29.99 1016.4
07 06:56 S 8 10.00 Fair CLR 53.1 43 69% 29.97 1015.8
07 05:56 S 9 10.00 Fair CLR 51.1 42.1 71% 29.96 1015.2
07 04:56 Calm 10.00 Fair CLR 51.1 41 63 51.1 69% 29.94 1014.5
07 03:56 Calm 10.00 Fair CLR 53.1 39.9 61% 29.93 1014.0
07 02:56 S 5 10.00 Fair CLR 54 39.9 59% 29.91 1013.2
07 01:56 S 6 10.00 Fair CLR 55.9 39.9 55% 29.89 1012.5
07 00:56 S 3 10.00 Fair CLR 59 42.1 54% 29.87 1012.0
06 23:56 S 8 10.00 Fair CLR 61 43 52% 29.85 1011.1
06 22:56 S 9 10.00 Fair CLR 64 46.9 73.9 61 54% 29.84 1010.8
06 21:56 SW 3 10.00 Fair CLR 64.9 46.9 52% 29.84 1011.1
06 20:56 SE 7 10.00 Fair CLR 68 48 49% 29.84 1011.1
06 19:56 S 9 10.00 Fair CLR 70 48.9 47% 29.84 1011.0
06 18:56 S 8 10.00 Fair CLR 72 46 40% 29.84 1011.3
06 17:56 SW 12 G 20 10.00 Fair CLR 73 45 37% 29.86 1011.9
06 16:56 SW 9 10.00 Fair CLR 73.9 46.9 77 66 38% 29.86 1012.0
06 15:56 SW 15 10.00 A Few Clouds FEW060 73.9 48.9 41% 29.88 1012.7
06 14:56 SW 13 10.00 Fair CLR 75 50 42% 78 29.89 1013.1
06 13:56 W 10 10.00 Fair CLR 75 48.9 40% 77 29.91 1013.5
06 12:56 Vrbl 5 10.00 Fair CLR 72 45 38% 29.93 1014.2
06 11:56 NW 8 10.00 Fair CLR 69.1 43 39% 29.95 1015.2
06 10:56 Vrbl 5 10.00 Fair CLR 66.9 39 66.9 46 36% 29.95 1015.2
06 09:56 Vrbl 6 10.00 Fair CLR 63 37.9 40% 29.97 1015.8
06 08:56 Vrbl 3 10.00 Fair CLR 57.9 36 44% 29.98 1016.2
06 07:56 NE 9 10.00 Fair CLR 53.1 37 55% 29.97 1016.1
06 06:56 NE 6 10.00 Fair CLR 51.1 34 52% 29.98 1016.1
06 05:56 E 6 10.00 Fair CLR 46.9 35.1 63% 45 29.97 1015.9
06 04:56 E 6 10.00 Fair CLR 46.9 39 55.9 43 74% 45 29.96 1015.6
06 03:56 E 3 10.00 Fair CLR 44.1 37 76% 29.96 1015.7
06 02:56 E 5 10.00 Fair CLR 45 37.9 77% 43 29.96 1015.6
06 01:56 Calm 10.00 Fair CLR 48.9 37 64% 29.95 1015.4
06 00:56 Vrbl 5 10.00 Fair CLR 48.9 37.9 66% 48 29.94 1015.1
05 23:56 NE 3 10.00 Fair CLR 48.9 39 69% 29.94 1014.8
05 22:56 E 5 10.00 Fair CLR 54 41 72 53.1 62% 29.92 1014.1
Date Time (pdt) Wind (mph) Vis. (mi.) Weather Sky Cond. Air Dwpt Max. Min. Relative Humidity Wind Chill (°F) Heat Index (°F) altimeter (in) sea level (mb) 1 hr 3 hr 6 hr
6 hour
Temperature (ºF) Pressure Precipitation (in)